Location: Omaha
(41.2590°N, 95.9380°W)
Time: 06:36:25
(UTC-05:00)

Envisat - Pass Details

Date: 16 October 2017
Orbit: 764 x 766 km, 98.2° (Epoch: 17 October)

Event Time Altitude Azimuth Distance (km) Brightness Sun altitude
Exits shadow 19:46:16 15° 63° (ENE) 1,963 4.6 -13.0°
Maximum altitude 19:46:23 15° 61° (ENE) 1,963 4.6 -13.1°
Drops below altitude 10° 19:49:13 10° 27° (NNE) 2,309 5.2 -13.6°
Sets 19:52:27 0° 5° (N) 3,240 6.2 -14.2°
